TimePST,TemperatureF,Dew PointF,Humidity,Sea Level PressureIn,VisibilityMPH,Wind Direction,Wind SpeedMPH,Gust SpeedMPH,PrecipitationIn,Events,Conditions,WindDirDegrees,DateUTC
12:15 AM,33.8,33.8,100,30.26,7.0,East,3.5,-,N/A,,Clear,100,2013-03-09 08:15:00
12:35 AM,35.6,33.8,93,30.27,7.0,Calm,Calm,-,N/A,,Clear,0,2013-03-09 08:35:00
12:55 AM,33.8,33.8,100,30.28,7.0,Calm,Calm,-,N/A,,Clear,0,2013-03-09 08:55:00
1:15 AM,35.6,35.6,100,30.28,7.0,Calm,Calm,-,N/A,,Clear,0,2013-03-09 09:15:00
1:35 AM,37.4,35.6,93,30.29,7.0,East,4.6,-,N/A,,Clear,90,2013-03-09 09:35:00
1:55 AM,37.4,37.4,100,30.30,7.0,East,5.8,-,N/A,,Clear,80,2013-03-09 09:55:00
2:15 AM,37.4,37.4,100,30.29,2.5,East,6.9,-,N/A,,Scattered Clouds,80,2013-03-09 10:15:00
2:35 AM,37.4,37.4,100,30.30,1.5,East,5.8,-,N/A,,Overcast,80,2013-03-09 10:35:00
2:55 AM,37.4,37.4,100,30.31,0.5,East,5.8,-,N/A,Fog,Fog,90,2013-03-09 10:55:00
3:15 AM,37.4,37.4,100,30.31,0.5,East,6.9,-,N/A,Fog,Fog,80,2013-03-09 11:15:00
3:35 AM,37.4,37.4,100,30.30,0.5,East,6.9,-,N/A,Fog,Fog,100,2013-03-09 11:35:00
3:55 AM,37.4,37.4,100,30.30,0.2,East,9.2,-,N/A,Fog,Fog,90,2013-03-09 11:55:00
4:15 AM,37.4,37.4,100,30.31,0.5,East,3.5,-,N/A,Fog,Fog,80,2013-03-09 12:15:00
4:35 AM,37.4,35.6,93,30.32,4.0,Calm,Calm,-,N/A,,Mostly Cloudy,0,2013-03-09 12:35:00
4:55 AM,35.6,35.6,100,30.34,7.0,Calm,Calm,-,N/A,,Scattered Clouds,0,2013-03-09 12:55:00
5:15 AM,35.6,35.6,100,30.35,4.0,Calm,Calm,-,N/A,,Scattered Clouds,0,2013-03-09 13:15:00
5:35 AM,35.6,35.6,100,30.36,0.8,Calm,Calm,-,N/A,,Overcast,0,2013-03-09 13:35:00
5:55 AM,35.6,35.6,100,30.38,0.2,NNE,4.6,-,N/A,Fog,Fog,20,2013-03-09 13:55:00
6:15 AM,33.8,33.8,100,30.38,0.5,Calm,Calm,-,N/A,Fog,Fog,0,2013-03-09 14:15:00
6:35 AM,33.8,33.8,100,30.39,4.0,ESE,4.6,-,N/A,,Mostly Cloudy,110,2013-03-09 14:35:00
6:55 AM,35.6,35.6,100,30.41,4.0,Calm,Calm,-,N/A,,Overcast,0,2013-03-09 14:55:00
7:15 AM,37.4,37.4,100,30.42,2.5,Calm,Calm,-,N/A,,Overcast,0,2013-03-09 15:15:00
7:35 AM,39.2,37.4,93,30.42,1.8,East,8.1,-,N/A,,Overcast,100,2013-03-09 15:35:00
7:55 AM,37.4,37.4,100,30.42,0.8,East,6.9,-,N/A,,Overcast,100,2013-03-09 15:55:00
8:15 AM,39.2,37.4,93,30.42,1.5,East,5.8,-,N/A,,Overcast,100,2013-03-09 16:15:00
8:35 AM,41.0,41.0,100,30.43,7.0,East,4.6,-,N/A,,Mostly Cloudy,80,2013-03-09 16:35:00
8:55 AM,41.0,41.0,100,30.44,7.0,Calm,Calm,-,N/A,,Mostly Cloudy,0,2013-03-09 16:55:00
9:15 AM,41.0,41.0,100,30.46,7.0,Calm,Calm,-,N/A,,Overcast,0,2013-03-09 17:15:00
9:35 AM,41.0,41.0,100,30.47,5.0,NNW,5.8,-,N/A,,Overcast,340,2013-03-09 17:35:00
9:55 AM,42.8,41.0,93,30.47,5.0,Calm,Calm,-,N/A,,Overcast,0,2013-03-09 17:55:00
10:15 AM,44.6,42.8,93,30.48,10.0,NNE,3.5,-,N/A,,Overcast,20,2013-03-09 18:15:00
10:35 AM,44.6,42.8,93,30.48,10.0,East,3.5,-,N/A,,Overcast,90,2013-03-09 18:35:00
10:55 AM,44.6,42.8,93,30.48,10.0,ENE,4.6,-,N/A,,Overcast,70,2013-03-09 18:55:00
11:15 AM,46.4,42.8,87,30.48,10.0,Calm,Calm,-,N/A,,Overcast,0,2013-03-09 19:15:00
11:35 AM,46.4,42.8,87,30.49,10.0,NW,8.1,-,N/A,,Overcast,320,2013-03-09 19:35:00
11:55 AM,46.4,42.8,87,30.48,10.0,NNE,3.5,-,N/A,,Mostly Cloudy,20,2013-03-09 19:55:00
12:15 PM,50.0,42.8,76,30.48,10.0,NE,4.6,-,N/A,,Clear,50,2013-03-09 20:15:00
12:35 PM,50.0,42.8,76,30.48,10.0,NW,3.5,-,N/A,,Clear,310,2013-03-09 20:35:00
12:55 PM,50.0,44.6,82,30.48,10.0,WNW,4.6,-,N/A,,Clear,300,2013-03-09 20:55:00
1:15 PM,50.0,42.8,76,30.48,10.0,NW,9.2,-,N/A,,Clear,310,2013-03-09 21:15:00
1:35 PM,50.0,42.8,76,30.48,10.0,NNW,9.2,-,N/A,,Clear,330,2013-03-09 21:35:00
1:55 PM,50.0,42.8,76,30.48,10.0,NNW,11.5,-,N/A,,Clear,340,2013-03-09 21:55:00
2:15 PM,50.0,42.8,76,30.48,10.0,NNW,8.1,-,N/A,,Clear,330,2013-03-09 22:15:00
2:35 PM,50.0,42.8,76,30.48,10.0,NNW,9.2,-,N/A,,Clear,340,2013-03-09 22:35:00
2:55 PM,50.0,42.8,76,30.48,10.0,NNW,12.7,-,N/A,,Clear,330,2013-03-09 22:55:00
3:15 PM,50.0,42.8,76,30.48,10.0,NNW,11.5,-,N/A,,Clear,340,2013-03-09 23:15:00
3:35 PM,50.0,42.8,76,30.48,10.0,NNW,12.7,-,N/A,,Clear,330,2013-03-09 23:35:00
3:55 PM,48.2,42.8,82,30.49,10.0,NNW,12.7,-,N/A,,Clear,340,2013-03-09 23:55:00
4:15 PM,48.2,42.8,82,30.48,10.0,North,8.1,-,N/A,,Clear,350,2013-03-10 00:15:00
4:35 PM,46.4,42.8,87,30.48,10.0,NNW,4.6,-,N/A,,Clear,330,2013-03-10 00:35:00
4:55 PM,46.4,42.8,87,-9999,10.0,NNW,10.4,-,N/A,,Clear,340,2013-03-10 00:55:00
5:15 PM,46.4,42.8,87,30.49,10.0,NNW,12.7,-,N/A,,Clear,340,2013-03-10 01:15:00
5:35 PM,46.4,42.8,87,30.49,10.0,North,10.4,-,N/A,,Clear,350,2013-03-10 01:35:00
5:55 PM,44.6,41.0,87,30.50,10.0,NNW,9.2,-,N/A,,Clear,340,2013-03-10 01:55:00
6:15 PM,44.6,41.0,87,30.51,10.0,NNW,9.2,-,N/A,,Clear,340,2013-03-10 02:15:00
6:35 PM,44.6,41.0,87,30.52,10.0,NNW,6.9,-,N/A,,Clear,340,2013-03-10 02:35:00
6:55 PM,42.8,41.0,93,30.52,10.0,North,6.9,-,N/A,,Clear,350,2013-03-10 02:55:00
7:15 PM,42.8,39.2,87,30.52,7.0,Calm,Calm,-,N/A,,Clear,0,2013-03-10 03:15:00
7:35 PM,39.2,37.4,93,30.53,10.0,Calm,Calm,-,N/A,,Clear,0,2013-03-10 03:35:00
7:55 PM,37.4,35.6,93,30.52,7.0,East,3.5,-,N/A,,Clear,100,2013-03-10 03:55:00
8:15 PM,41.0,39.2,93,30.53,10.0,Calm,Calm,-,N/A,,Clear,0,2013-03-10 04:15:00
8:35 PM,37.4,35.6,93,30.53,7.0,Calm,Calm,-,N/A,,Clear,0,2013-03-10 04:35:00
8:55 PM,35.6,35.6,100,30.52,7.0,Calm,Calm,-,N/A,,Clear,0,2013-03-10 04:55:00
9:15 PM,35.6,33.8,93,30.53,7.0,Calm,Calm,-,N/A,,Clear,0,2013-03-10 05:15:00
9:35 PM,35.6,33.8,93,30.53,10.0,ESE,3.5,-,N/A,,Clear,110,2013-03-10 05:35:00
9:55 PM,35.6,35.6,100,30.54,7.0,Calm,Calm,-,N/A,,Clear,0,2013-03-10 05:55:00
10:15 PM,33.8,33.8,100,30.54,7.0,Calm,Calm,-,N/A,,Clear,0,2013-03-10 06:15:00
10:35 PM,33.8,33.8,100,30.54,7.0,East,5.8,-,N/A,,Clear,100,2013-03-10 06:35:00
10:55 PM,37.4,35.6,93,30.53,10.0,East,4.6,-,N/A,,Clear,100,2013-03-10 06:55:00
11:15 PM,37.4,35.6,93,30.53,10.0,East,4.6,-,N/A,,Clear,100,2013-03-10 07:15:00
11:35 PM,37.4,37.4,100,30.52,7.0,East,5.8,-,N/A,,Clear,90,2013-03-10 07:35:00
11:55 PM,37.4,35.6,93,30.52,10.0,East,3.5,-,N/A,,Clear,80,2013-03-10 07:55:00